Location: Doux
(49.5045°N, 4.4321°E)
Time: 13:09:00
(UTC+00:00)

Genesis I - Pass Details

Date: 23 May 2024
Orbit: 433 x 466 km, 64.5° (Epoch: 18 June)

Event Time Altitude Azimuth Distance (km) Brightness Sun altitude
Exits shadow 02:06:06 20° 191° (S) 1,105 4.3 -12.6°
Maximum altitude 02:08:16 47° 124° (SE) 604 3.5 -12.4°
Drops below altitude 10° 02:11:41 10° 50° (NE) 1,600 7.1 -12.1°
Sets 02:13:52 0° 44° (NE) 2,486 8.7 -11.9°
